Regional Weather Roundup
Issued by NWS Albany, NY

Home | Current Version | Previous Version | Text Only | Print | Product List | Glossary On
Versions: 1 2 3 4 5 6 7 8 9 10 11 12 13 14 15 16 17 18 19 20 21 22 23 24 25 26 27 28 29 30 31 32 33 34 35 36 37 38 39 40 41 42 43 44 45 46 47 48 49 50
584
ASUS41 KALY 171410
RWRALY

NEW YORK STATE HOURLY WEATHER ROUNDUP
NATIONAL WEATHER SERVICE ALBANY NY
900 AM EST FRI NOV 17 2017

NOTE: "FAIR" INDICATES FEW OR NO CLOUDS BELOW 12,000 FEET WITH NO
SIGNIFICANT WEATHER AND/OR NO OBSTRUCTIONS TO VISIBILITY.

NYZ032-033-038>043-046>054-057>066-NYZ062>081-082-084-171500-
EAST


CITY           SKY/WX    TMP DP  RH WIND       PRES   REMARKS
ALBANY         PTSUNNY   34  21  59 NW24G32   30.09R WCI  21
GLENS FALLS    CLOUDY    33  21  61 NW17G29   30.07R WCI  22
POUGHKEEPSIE   SUNNY     40  24  53 NW13      30.04R WCI  32
NEWBURGH       MOSUNNY   37  27  65 NW22G31   30.05R WCI  27
MONTGOMERY     MOSUNNY   39  25  57 VRB6G22   30.05R WCI  35
WHITE PLAINS   MOSUNNY   40  25  55 NW21G29   30.02R WCI  30
ISLIP          MOSUNNY   44  27  51 NW21G29   30.01R
NEW YORK CITY  MOSUNNY   43  28  55 NW25G33   30.05R
CENTRAL PARK   MOSUNNY   40  25  55 NW9G24    30.08R WCI  34
$$

NYZ005>009-017-018-044>046-055-056-171500-
CENTRAL


CITY           SKY/WX    TMP DP  RH WIND       PRES   REMARKS
FULTON         CLOUDY    30  21  69 NW15      30.22R WCI  19
SYRACUSE       CLOUDY    29  22  75 NW15      30.20R WCI  18
ROME           CLOUDY    30  23  75 NW17      30.17R WCI  18
ELMIRA         MOSUNNY   34  23  64 NW8       30.20R WCI  27
BINGHAMTON     CLOUDY    28  20  71 NW13G21   30.12R WCI  17
MONTICELLO     CLOUDY    32  25  75 NW17G23   30.06R WCI  21
$$

NYZ026>034-041>043-087-171500-
NORTH


CITY           SKY/WX    TMP DP  RH WIND       PRES   REMARKS
WATERTOWN      CLOUDY    28  20  71 NW10      30.21R WCI  19
FORT DRUM      NOT AVBL
OGDENSBURG     PTSUNNY   27  18  71 W9        30.19R WCI  17
MASSENA        CLOUDY    27  19  72 W14       30.17R WCI  16
SARANAC LAKE   CLOUDY    21  20  96 VRB5      30.02S WCI  15
PLATTSBURGH    CLOUDY    30  18  60 NW10G24   30.07R WCI  21
$$

NYZ001>004-010>016-019>021-085-171500-
WEST


CITY           SKY/WX    TMP DP  RH WIND       PRES   REMARKS
NIAGARA FALLS  CLOUDY    32  21  64 N7        30.27S WCI  26
BUFFALO        PTSUNNY   30  22  72 N6        30.27R WCI  24
DUNKIRK        CLOUDY    33  25  72 NW6       30.28R WCI  28
JAMESTOWN      CLOUDY    29  23  78 NW7       30.23R WCI  22
WELLSVILLE     CLOUDY    29  21  72 N8        30.18R WCI  21
ROCHESTER      MOSUNNY   32  20  61 NW13      30.26R WCI  22
PENN YAN       PTSUNNY   31  20  63 NW14G22   30.22R WCI  21
$$

             KEY
       WCI = WIND CHILL INDEX
       VSB = VISIBILITY
       HX  = HEAT INDEX
$$




USA.gov is the U.S. government's official web portal to all federal, state and local government web resources and services.